Flag for U.S.A. Weather past 2 weeks in Tempe, Arizona, U.S.A.

Now
67 °F

Passing clouds.


Feels Like: 67 °F
Forecast: 63 / 87 °F
Wind: No wind

Location: Phoenix Sky Harbor International Airport


UV Index: 5 (Moderate)

Visibility: 10 mi


Pressure: 29.81 "Hg

Humidity: 44%

Dew point: 44 °F

Location of TempeLocation

Historic Weather in Tempe

°F

Tempe temperature yesterday

Maximum temperature yesterday: 81 °F (at 10:51 AM)
Minimum temperature yesterday: 70 °F (at 11:51 PM)
Average temperature yesterday: 77 °F

Past Weeks' High & Low Weather Summary

 TemperatureHumidityPressure
High97 °F (Apr 10, 3:51 PM)44% (Apr 19, 2:51 AM)30.09 "Hg (Apr 19, 2:51 AM)
Low53 °F (Apr 4, 5:51 AM)3% (Apr 10, 3:51 PM)29.61 "Hg (Apr 12, 4:51 PM)
Average77 °F15%29.83 "Hg
* Reported Apr 4 2:51 AM — Apr 19 2:51 AM, Tempe, Weather by CustomWeather, © 2014

Note: Actual official high and low records may vary slightly from our data, if they occured in-between our weather recording intervals... More about our weather records

Advertising

Historic Weather Conditions — Data for Previous 24 hours

 ConditionsComfort  
Time TempWeatherWind HumidityBarometerVisibility
2:51 AM
Apr 19
67 °FPassing clouds.No wind44%29.81 "Hg10 mi
1:51 AM68 °FClear.No wind42%29.81 "Hg10 mi
12:51 AM70 °FPassing clouds.No wind38%29.82 "Hg10 mi
11:51 PM
Apr 18
70 °FPassing clouds.7 mph39%29.83 "Hg10 mi
10:51 PM74 °FPassing clouds.6 mph32%29.81 "Hg10 mi
9:51 PM76 °FPassing clouds.8 mph29%29.81 "Hg10 mi
8:51 PM76 °FPassing clouds.7 mph27%29.80 "Hg10 mi
7:51 PM79 °FClear.6 mph24%29.78 "Hg10 mi
6:51 PM80 °FOvercast.10 mph22%29.77 "Hg10 mi
5:51 PM81 °FBroken clouds.13 mph21%29.78 "Hg10 mi
4:51 PM81 °FOvercast.13 mph21%29.80 "Hg10 mi
3:51 PM81 °FMore clouds than sun.6 mph21%29.81 "Hg10 mi
2:51 PM81 °FMore clouds than sun.15 mph22%29.83 "Hg10 mi
1:51 PM80 °FMostly cloudy.3 mph24%29.87 "Hg10 mi
12:51 PM80 °FCloudy.10 mph24%29.87 "Hg10 mi
11:51 AM78 °FMostly cloudy.17 mph28%29.90 "Hg10 mi
10:51 AM81 °FPartly sunny.14 mph21%29.88 "Hg10 mi
9:51 AM79 °FMostly cloudy.7 mph23%29.87 "Hg10 mi
8:51 AM78 °FBroken clouds.7 mph23%29.85 "Hg10 mi
7:51 AM73 °FBroken clouds.6 mph25%29.84 "Hg10 mi
6:51 AM71 °FBroken clouds.8 mph26%29.81 "Hg10 mi
5:51 AM71 °FMostly cloudy.3 mph28%29.80 "Hg10 mi
4:51 AM72 °FOvercast.5 mph26%29.77 "Hg10 mi
3:51 AM75 °FOvercast.7 mph22%29.77 "Hg10 mi
Weather by CustomWeather, © 2014

See weather overview